Location: Newark
(25.6108°S, 54.5803°W)
Time: 05:27:40
(UTC+00:00)

deb Explorer IX - Pass Details

Date: 30 October 2020
Orbit: 538 x 1104 km, 38.8° (Epoch: 27 November)

Event Time Altitude Azimuth Distance (km) Brightness Sun altitude
Rises 00:28:39 0° 231° (SW) 2,898 ? -32.2°
Reaches altitude 10° 00:31:27 10° 216° (SW) 1,918 ? -32.7°
Enters shadow 00:33:09 18° 198° (SSW) 1,442 ? -33.0°
Maximum altitude 00:34:57 23° 163° (SSE) 1,210 - -33.3°
Drops below altitude 10° 00:38:16 10° 108° (ESE) 1,808 - -33.9°
Sets 00:40:49 0° 93° (E) 2,689 - -34.3°
